Location: Unspecified
(43.8044°N, 11.0278°E)
Time: 20:57:13
(UTC+02:00)

Cosmos 2058 - Visible Passes

Search period start: 25 October 2014 00:00
Search period end: 03 November 2014 23:00
Orbit: 571 x 592 km, 82.5° (Epoch: 24 October)

Date Brightness Start Highest point End Pass type
(mag) Time Alt. Az. Time Alt. Az. Time Alt. Az.
25 Oct 5.4 04:52:37 10° SE 04:55:44 21° E 04:58:52 10° NE visible
25 Oct 3.6 06:28:48 10° SW 06:32:35 33° WNW 06:36:25 10° N visible
26 Oct 4.9 03:59:14 19° SE 04:01:11 28° E 04:04:48 10° NNE visible
26 Oct 4.0 05:35:45 15° WSW 05:38:15 24° WNW 05:41:43 10° NNW visible
27 Oct 4.2 04:06:42 39° E 04:06:42 39° E 04:10:36 10° NNE visible
27 Oct 4.4 05:43:10 17° W 05:43:56 18° WNW 05:46:52 10° NNW visible
28 Oct 4.2 04:13:37 36° NE 04:13:37 36° NE 04:16:18 10° NNE visible
28 Oct 4.7 05:50:03 13° WNW 05:50:03 13° WNW 05:51:43 10° NW visible
29 Oct 4.7 04:20:12 24° NNE 04:20:12 24° NNE 04:21:55 10° N visible
30 Oct 5.2 04:26:35 16° N 04:26:35 16° N 04:27:27 10° N visible
31 Oct 5.6 04:32:48 11° N 04:32:48 11° N 04:32:54 10° N visible
